Location: Newark
(34.6283°N, 36.0776°E)
Time: 09:00:39
(UTC+00:00)

A-11 Canister half - Pass Details

Date: 25 September 2019
Orbit: 1527 x 1682 km, 47.3° (Epoch: 14 October)

Event Time Altitude Azimuth Distance (km) Brightness Sun altitude
Rises 08:55:22 0° 294° (WNW) 4,835 11.4 53.8°
Reaches altitude 10° 08:59:24 10° 280° (W) 3,871 11.1 54.0°
Maximum altitude 09:06:19 22° 235° (SW) 3,060 11.1 54.2°
Drops below altitude 10° 09:13:23 10° 189° (S) 3,922 11.9 54.4°
Sets 09:17:33 0° 175° (S) 4,915 12.2 54.5°
